Regional Weather Roundup
Issued by NWS

Home | Current Version | Previous Version | Text Only | Print | Product List | Glossary Off
Versions: 1 2 3 4 5 6 7 8 9 10 11 12 13 14 15 16 17 18 19 20 21 22 23 24 25 26 27 28 29 30 31 32 33 34 35 36 37 38 39 40 41 42 43 44 45 46 47 48 49 50

000
ASUS45 KBOU 050407
RWRCO

WEATHER ROUNDUP FOR COLORADO
NATIONAL WEATHER SERVICE DENVER/BOULDER CO
1000 PM MDT FRI SEP 04 2015

NOTE: "FAIR" INDICATES FEW OR NO CLOUDS BELOW 12000 FEET WITH NO
SIGNIFICANT WEATHER AND/OR OBSTRUCTIONS TO VISIBILITY.

COZ001>005-013-030-031-050500-
...NORTHWEST COLORADO...

CITY           SKY/WX    TMP DP  RH WIND       PRES   REMARKS
CRAIG          MOCLDY    62  47  57 E6        30.04S
HAYDEN         MOCLDY    61  45  55 E13       30.07S
MEEKER         MOCLDY    64  46  52 E12       30.06S
MOUNT WERNER   NOT AVBL
STEAMBOAT SPGS MOCLDY    60  44  56 CALM      30.11R
WALDEN         CLOUDY    52  43  71 S6        30.18S
$$

COZ006>008-011-050500-
...WEST CENTRAL VALLEYS...

CITY           SKY/WX    TMP DP  RH WIND       PRES   REMARKS
GRAND JUNCTION MOCLDY    64  56  75 SE20      29.99R
MONTROSE       CLOUDY    62  53  72 E7        30.10R
EAGLE          CLOUDY    61  54  77 CALM      30.16S
RIFLE          MOCLDY    58  55  90 CALM      30.06S
DELTA          RAIN      64  57  78 NE5       30.06S
NUCLA          CLOUDY    61  54  77 E7        30.11S
$$

COZ017>023-064>068-050500-
...SOUTHWEST COLORADO...

CITY           SKY/WX    TMP DP  RH WIND       PRES   REMARKS
DURANGO        CLOUDY    58  56  93 CALM      30.20R
CORTEZ         MOCLDY    66  53  63 CALM      30.10S
PAGOSA SPRINGS RAIN      56  56  99 CALM      30.27R
TELLURIDE      CLOUDY    51  45  81 SE5       30.31S
WOLF CREEK PAS NOT AVBL
$$

COZ009-010-012-014-032>034-037-058>063-050500-
...CENTRAL COLORADO...

CITY           SKY/WX    TMP DP  RH WIND       PRES   REMARKS
ASPEN          CLOUDY    54  50  86 S3        30.21S
BUENA VISTA    LGT RAIN  57  50  78 CALM      30.23R
COPPER MTN     LGT RAIN  45  37  76 SE12G21   30.48S
BERTHOUD PASS  CLOUDY    37  27  65 W16G24    30.50F
COTTONWOOD PAS CLOUDY    52  46  82 CALM      30.35R
GUNNISON       CLOUDY    55  50  82 N7        30.26F
KREMMLING      CLOUDY    54  50  87 SE3       30.21S
LEADVILLE      LGT RAIN  46  46 100 E3        30.34F
MONARCH PASS   LGT RAIN  41  41 100 W22       30.57S VSB<1/4
SALIDA         CLOUDY    62  52  67 W7        30.29R
SUNLIGHT       MOCLDY    46  45  93 CALM      30.41R
WILKERSON PASS CLOUDY    45  41  87 SW8       30.44F
$$

COZ069>075-050500-
...SAN LUIS VALLEY/SANGRE DE CRISTO MOUNTAINS...

CITY           SKY/WX    TMP DP  RH WIND       PRES   REMARKS
ALAMOSA        CLOUDY    58  50  75 S16       30.23R
LA VETA PASS   MOCLDY    46  41  81 MISG      30.34F
SAGUACHE       CLOUDY    54  54 100 CALM      30.26R
$$

COZ035-036-038>040-050500-
...NORTHERN COLORADO FRONT RANGE...

CITY           SKY/WX    TMP DP  RH WIND       PRES   REMARKS
DENVER INTL AP CLOUDY    72  49  44 W6        29.97F
DMNS CITY PARK   N/A     67  53  61 E8        29.97F
AURORA         MOCLDY    69  51  54 SE8       30.01R
FRONT RANGE AP NOT AVBL
ERIE MUNI ARPT CLOUDY    67  49  52 CALM      29.96S
BOULDER MUN AP CLOUDY    70  50  49 W5        29.97F
CENTENNIAL     CLOUDY    69  51  52 SW7       30.02R
BROOMFIELD     PTCLDY    73  46  38 CALM      30.00F
FORT COLLINS   CLOUDY    70  50  49 NW3       29.97S
LONGMONT       CLOUDY    66  52  60 W6        29.98S
$$

COZ041-046-047-076>085-087-088-050500-
...PIKES PEAK/PALMER DIVIDE AND SOUTHERN FOOTHILLS...

CITY           SKY/WX    TMP DP  RH WIND       PRES   REMARKS
COLO. SPRINGS  CLOUDY    69  49  48 E3        30.06R
A. F. ACADEMY  CLOUDY    65  48  54 N6        30.07R
ELLICOTT       CLOUDY     1  32 100 S10       30.05R WCI -15
FALCON         CLOUDY    65  47  53 CALM      30.11S
FORT CARSON    CLOUDY    70  49  47 SW8       30.02R
LIMON          CLOUDY    72  51  47 S8        29.99R
MONUMENT HILL  CLOUDY    59  46  63 CALM      30.11S
TRINIDAD       CLOUDY    71  47  42 W12       30.08R
$$

COZ042>045-048>051-090-091-050500-
...NORTHEAST COLORADO...

CITY           SKY/WX    TMP DP  RH WIND       PRES   REMARKS
GREELEY ARPT   CLOUDY    70  52  52 S3        29.95R
AKRON          LGT RAIN  69  56  62 NW9G20    29.94R
BURLINGTON     CLOUDY    77  52  41 S12       29.91F
WRAY           CLOUDY    82  50  32 SE13      29.87S
STERLING       CLOUDY    81  50  34 S10       29.88R
HOLYOKE        MOCLDY    73  55  53 E8        29.88S
FORT MORGAN    CLOUDY    73  46  38 SE7       29.94R
$$

COZ086-089-092>099-050500-
...SOUTHEAST COLORADO...

CITY           SKY/WX    TMP DP  RH WIND       PRES   REMARKS
PUEBLO         CLOUDY    77  49  37 SW7       29.95S
LA JUNTA       CLOUDY    83  49  30 SW17      29.94R
LAMAR          MOCLDY    81  48  31 S10       29.90R
SPRINGFIELD      N/A     78  49  35 S10       29.99R
$$




USA.gov is the U.S. government's official web portal to all federal, state and local government web resources and services.